Regional Weather Roundup
Issued by NWS

Home | Current Version | Previous Version | Graphics & Text | Print | Product List | Glossary On
Versions: 1 2 3 4 5 6 7 8 9 10 11 12 13 14 15 16 17 18 19 20 21 22 23 24 25 26 27 28 29 30 31 32 33 34 35 36 37 38 39 40 41 42 43 44 45 46 47 48 49 50
000
ASUS43 KOAX 301602
RWRNE

WEATHER ROUNDUP FOR NEBRASKA
NATIONAL WEATHER SERVICE OMAHA NE
1100 AM CDT WED JUL 30 2014

NOTES: SATELLITE DATA IS BEING USED TO AUGMENT CLOUD COVER ABOVE
       12000 FEET.
       "FAIR" INDICATES FEW OR NO CLOUDS BELOW 12,000 FEET WITH NO
       SIGNIFICANT WEATHER AND/OR OBSTRUCTIONS TO VISIBILITY.

  * THESE STATIONS DO NOT REPORT WEATHER SUCH AS RAIN...SNOW OR FOG.

NEZ001>004-019>022-054>056-301700-
NEBRASKA PANHANDLE

CITY           SKY/WX    TMP DP  RH WIND       PRES   REMARKS
SCOTTSBLUFF    FAIR      70  59  68 CALM      30.28S
ALLIANCE       FAIR      71  57  61 NW5       30.26F
CHADRON        FAIR      72  56  57 W9        30.23F
KIMBALL        CLOUDY    66  59  80 NE3       30.30S
SIDNEY         CLOUDY    65  59  81 CALM      30.30S
$$

NEZ057>060-069>072-079>082-301700-
SOUTHWEST NEBRASKA

CITY           SKY/WX    TMP DP  RH WIND       PRES   REMARKS
NORTH PLATTE   FAIR      74  55  51 VRB5      30.22S
IMPERIAL       CLOUDY    68  62  81 CALM      30.25S
LEXINGTON      FAIR      74  57  55 CALM      30.20S
MCCOOK         FAIR      70  60  70 NE3       30.22S
OGALLALA       PTSUNNY   72  58  62 SE7       30.24S
$$

NEZ005>010-023>029-035>040-094-301700-
NORTH CENTRAL NEBRASKA

CITY           SKY/WX    TMP DP  RH WIND       PRES   REMARKS
VALENTINE      FAIR      75  51  43 S3        30.21F
AINSWORTH      FAIR      74  51  45 NW5       30.22S
BROKEN BOW     FAIR      76  58  53 N6        30.21S
O`NEILL        FAIR      74  57  54 N3        30.19S
ORD            FAIR      73  59  61 CALM      30.18F
THEDFORD       FAIR      75  54  47 N6        30.23S
$$

NEZ041-046>049-061>064-073>077-083>087-301700-
SOUTH CENTRAL NEBRASKA

CITY           SKY/WX    TMP DP  RH WIND       PRES   REMARKS
GRAND ISLAND   FAIR      73  55  53 E6        30.20R
AURORA         FAIR      74  56  53 NE5       30.19R
HASTINGS       FAIR      74  52  46 E6        30.19R
HEBRON         FAIR      73  54  51 NE3       30.17S
HOLDREGE       FAIR      72  55  54 E3        30.20S
KEARNEY *      FAIR      73  55  53 E7        30.20R
YORK           FAIR      73  55  53 NE5       30.19R
$$

NEZ011>018-030>034-042>045-301700-
NORTHEAST NEBRASKA

CITY           SKY/WX    TMP DP  RH WIND       PRES   REMARKS
NORFOLK        FAIR      75  56  51 VRB3      30.18S
ALBION         FAIR      72  57  59 N5        30.19S
BLAIR          FAIR      73  56  54 N6        30.17R
COLUMBUS *       N/A     57  55  94 N3        30.19R
FREMONT        FAIR      75  58  54 N6        30.18R
TEKAMAH        FAIR      76  56  49 N6        30.16S
WAYNE          FAIR      74  58  56 NW3       30.18S
$$

NEZ050>053-065>068-078-088>093-301700-
SOUTHEAST NEBRASKA

CITY           SKY/WX    TMP DP  RH WIND       PRES   REMARKS
LINCOLN        FAIR      78  52  40 NE9       30.18R
OMAHA EPPLEY   FAIR      75  56  51 N7        30.16S
BEATRICE       FAIR      74  56  52 NE8       30.17R
FALLS CITY     FAIR      76  56  49 NE9       30.14R
NEBRASKA CITY  FAIR      73  56  54 NE6       30.16R
PLATTSMOUTH    FAIR      75  53  45 NE7       30.16S
$$

NEZ044-045-051>053-067-301700-
OMAHA AREA

CITY           SKY/WX    TMP DP  RH WIND       PRES   REMARKS
OMAHA EPPLEY   FAIR      75  56  51 N7        30.16S
BLAIR          FAIR      73  56  54 N6        30.17R
FREMONT        FAIR      75  58  54 N6        30.18R
MILLARD        FAIR      75  56  52 CALM      30.16R
OFFUTT AFB     FAIR      75  59  56 NE6       30.15S
PLATTSMOUTH    FAIR      75  53  45 NE7       30.16S
WAHOO          FAIR      72  59  62 MISG      30.17S
$$


USA.gov is the U.S. government's official web portal to all federal, state and local government web resources and services.